TimeEDT,TemperatureF,Dew PointF,Humidity,Sea Level PressureIn,VisibilityMPH,Wind Direction,Wind SpeedMPH,Gust SpeedMPH,PrecipitationIn,Events,Conditions,WindDirDegrees,DateUTC
12:15 AM,-9999,-9999,N/A,29.67,10.0,Calm,Calm,-,N/A,,Clear,0,2013-06-28 04:15:00
12:35 AM,-9999,-9999,N/A,29.66,10.0,WNW,5.8,-,N/A,,Partly Cloudy,290,2013-06-28 04:35:00
12:55 AM,-9999,-9999,N/A,29.65,10.0,WNW,6.9,-,N/A,,Partly Cloudy,290,2013-06-28 04:55:00
1:15 AM,-9999,-9999,N/A,29.64,10.0,WNW,6.9,-,N/A,,Clear,290,2013-06-28 05:15:00
1:35 AM,-9999,-9999,N/A,29.64,10.0,WNW,6.9,-,N/A,,Clear,300,2013-06-28 05:35:00
1:55 AM,-9999,-9999,N/A,29.64,10.0,West,8.1,-,N/A,,Clear,280,2013-06-28 05:55:00
2:35 AM,-9999,-9999,N/A,29.63,10.0,West,8.1,-,N/A,,Scattered Clouds,270,2013-06-28 06:35:00
2:55 AM,-9999,-9999,N/A,29.63,10.0,Calm,Calm,-,N/A,,Mostly Cloudy,0,2013-06-28 06:55:00
3:15 AM,-9999,-9999,N/A,29.64,10.0,ENE,5.8,-,N/A,,Overcast,70,2013-06-28 07:15:00
3:35 AM,-9999,-9999,N/A,29.65,10.0,Calm,Calm,-,N/A,,Mostly Cloudy,0,2013-06-28 07:35:00
3:55 AM,-9999,-9999,N/A,29.64,10.0,East,3.5,-,N/A,,Overcast,100,2013-06-28 07:55:00
4:15 AM,-9999,-9999,N/A,29.64,10.0,ENE,3.5,-,N/A,,Overcast,60,2013-06-28 08:15:00
4:35 AM,-9999,-9999,N/A,29.64,10.0,ENE,4.6,-,N/A,,Overcast,60,2013-06-28 08:35:00
4:55 AM,62.6,57.2,82,29.64,10.0,Calm,Calm,-,N/A,,Overcast,0,2013-06-28 08:55:00
5:15 AM,-9999,-9999,N/A,29.64,10.0,Calm,Calm,-,N/A,,Overcast,0,2013-06-28 09:15:00
5:35 AM,60.8,57.2,88,29.65,10.0,Calm,Calm,-,N/A,,Overcast,0,2013-06-28 09:35:00
5:55 AM,60.8,57.2,88,29.64,10.0,Calm,Calm,-,N/A,,Scattered Clouds,0,2013-06-28 09:55:00
6:15 AM,-9999,-9999,N/A,29.63,2.0,Calm,Calm,-,N/A,,Clear,0,2013-06-28 10:15:00
6:35 AM,-9999,-9999,N/A,29.63,0.8,Calm,Calm,-,N/A,,Overcast,0,2013-06-28 10:35:00
6:55 AM,-9999,-9999,N/A,29.63,2.5,West,5.8,-,N/A,,Scattered Clouds,260,2013-06-28 10:55:00
7:15 AM,-9999,-9999,N/A,29.63,7.0,Calm,Calm,-,N/A,,Scattered Clouds,0,2013-06-28 11:15:00
7:35 AM,-9999,-9999,N/A,29.63,9.0,WNW,3.5,-,0.01,,Mostly Cloudy,300,2013-06-28 11:35:00
7:55 AM,-9999,-9999,N/A,29.63,10.0,Calm,Calm,-,0.01,,Overcast,0,2013-06-28 11:55:00
8:15 AM,-9999,-9999,N/A,29.62,10.0,NW,4.6,-,N/A,,Overcast,320,2013-06-28 12:15:00
8:35 AM,-9999,-9999,N/A,29.62,10.0,WNW,5.8,-,N/A,,Overcast,300,2013-06-28 12:35:00
8:55 AM,-9999,-9999,N/A,29.62,10.0,WNW,6.9,-,N/A,,Overcast,290,2013-06-28 12:55:00
9:15 AM,-9999,-9999,N/A,29.61,10.0,NW,3.5,-,N/A,,Overcast,320,2013-06-28 13:15:00
9:35 AM,-9999,-9999,N/A,29.61,10.0,WNW,4.6,-,N/A,,Overcast,300,2013-06-28 13:35:00
9:55 AM,-9999,-9999,N/A,29.62,10.0,WNW,3.5,-,N/A,,Overcast,300,2013-06-28 13:55:00
10:15 AM,-9999,-9999,N/A,29.61,10.0,NW,4.6,-,N/A,,Overcast,320,2013-06-28 14:15:00
10:35 AM,-9999,-9999,N/A,29.61,10.0,NNW,4.6,-,N/A,,Overcast,340,2013-06-28 14:35:00
10:55 AM,-9999,-9999,N/A,29.62,10.0,NNW,8.1,-,N/A,,Overcast,340,2013-06-28 14:55:00
11:15 AM,-9999,-9999,N/A,29.61,10.0,NNW,4.6,-,N/A,,Overcast,330,2013-06-28 15:15:00
11:35 AM,-9999,-9999,N/A,29.62,10.0,North,8.1,-,N/A,,Overcast,10,2013-06-28 15:35:00
11:55 AM,-9999,-9999,N/A,29.62,10.0,NNE,8.1,-,N/A,,Overcast,20,2013-06-28 15:55:00
12:15 PM,-9999,-9999,N/A,29.63,10.0,NNE,5.8,-,N/A,,Overcast,30,2013-06-28 16:15:00
12:35 PM,68.0,60.8,78,29.64,10.0,North,4.6,-,N/A,,Overcast,360,2013-06-28 16:35:00
12:55 PM,-9999,-9999,N/A,29.64,10.0,North,6.9,-,N/A,,Overcast,350,2013-06-28 16:55:00
1:15 PM,-9999,-9999,N/A,29.64,10.0,North,8.1,-,N/A,,Overcast,350,2013-06-28 17:15:00
1:35 PM,66.2,60.8,83,29.65,10.0,NNW,9.2,-,N/A,,Overcast,340,2013-06-28 17:35:00
1:55 PM,-9999,-9999,N/A,29.64,10.0,NNE,8.1,-,N/A,,Overcast,30,2013-06-28 17:55:00
2:15 PM,-9999,-9999,N/A,29.64,10.0,NNW,6.9,-,N/A,,Overcast,340,2013-06-28 18:15:00
2:35 PM,-9999,-9999,N/A,29.64,10.0,North,8.1,-,N/A,,Overcast,10,2013-06-28 18:35:00
2:55 PM,-9999,-9999,N/A,29.63,10.0,North,8.1,-,N/A,,Overcast,350,2013-06-28 18:55:00
3:15 PM,-9999,-9999,N/A,29.63,10.0,NNW,6.9,-,N/A,,Overcast,340,2013-06-28 19:15:00
3:35 PM,-9999,-9999,N/A,29.64,10.0,North,10.4,-,N/A,,Overcast,10,2013-06-28 19:35:00
4:15 PM,66.2,59.0,78,29.65,10.0,North,9.2,-,N/A,,Overcast,10,2013-06-28 20:15:00
4:35 PM,-9999,-9999,N/A,29.64,10.0,North,8.1,-,N/A,,Overcast,10,2013-06-28 20:35:00
4:55 PM,-9999,-9999,N/A,29.64,10.0,North,9.2,-,N/A,,Overcast,350,2013-06-28 20:55:00
5:15 PM,-9999,-9999,N/A,29.64,10.0,North,8.1,-,N/A,,Overcast,360,2013-06-28 21:15:00
5:35 PM,-9999,-9999,N/A,29.64,10.0,North,6.9,-,N/A,,Overcast,350,2013-06-28 21:35:00
5:55 PM,-9999,-9999,N/A,29.64,10.0,North,9.2,-,N/A,,Overcast,10,2013-06-28 21:55:00
6:15 PM,-9999,-9999,N/A,29.64,10.0,NNE,12.7,17.3,N/A,,Overcast,20,2013-06-28 22:15:00
6:35 PM,-9999,-9999,N/A,29.65,10.0,North,8.1,-,N/A,,Overcast,10,2013-06-28 22:35:00
6:55 PM,-9999,-9999,N/A,29.65,10.0,North,9.2,-,N/A,,Overcast,360,2013-06-28 22:55:00
7:15 PM,-9999,-9999,N/A,29.65,10.0,North,4.6,-,N/A,,Overcast,360,2013-06-28 23:15:00
7:35 PM,-9999,-9999,N/A,29.65,10.0,North,9.2,-,N/A,,Overcast,350,2013-06-28 23:35:00
7:55 PM,-9999,-9999,N/A,29.66,10.0,North,10.4,18.4,N/A,,Overcast,360,2013-06-28 23:55:00
8:15 PM,-9999,-9999,N/A,29.66,10.0,NNE,10.4,17.3,N/A,,Overcast,20,2013-06-29 00:15:00
8:35 PM,-9999,-9999,N/A,29.67,10.0,NNE,12.7,-,N/A,,Overcast,20,2013-06-29 00:35:00
8:55 PM,-9999,-9999,N/A,29.67,10.0,NNE,9.2,18.4,N/A,,Overcast,20,2013-06-29 00:55:00
9:15 PM,-9999,-9999,N/A,29.67,10.0,NNE,9.2,-,N/A,,Overcast,20,2013-06-29 01:15:00
9:35 PM,-9999,-9999,N/A,29.68,10.0,North,8.1,-,N/A,,Overcast,10,2013-06-29 01:35:00
9:55 PM,-9999,-9999,N/A,29.68,10.0,North,8.1,-,N/A,,Overcast,350,2013-06-29 01:55:00
10:15 PM,-9999,-9999,N/A,29.68,10.0,NNW,8.1,-,N/A,,Overcast,340,2013-06-29 02:15:00
10:35 PM,-9999,-9999,N/A,29.69,10.0,North,5.8,-,N/A,,Scattered Clouds,350,2013-06-29 02:35:00
10:55 PM,-9999,-9999,N/A,29.68,10.0,North,8.1,-,N/A,,Partly Cloudy,360,2013-06-29 02:55:00
11:15 PM,60.8,55.4,82,29.69,10.0,North,6.9,-,N/A,,Mostly Cloudy,360,2013-06-29 03:15:00
11:35 PM,-9999,-9999,N/A,29.68,10.0,North,8.1,-,N/A,,Scattered Clouds,360,2013-06-29 03:35:00
11:55 PM,-9999,-9999,N/A,29.68,10.0,North,5.8,-,N/A,,Mostly Cloudy,350,2013-06-29 03:55:00